Location: Beadle
(51.4667°N, 109.0000°W)
Time: 18:28:40
(UTC+00:00)

O/OREOS (USA 219) - Pass Details

Date: 28 June 2022
Orbit: 621 x 646 km, 72.0° (Epoch: 22 May)

Event Time Altitude Azimuth Distance (km) Brightness Sun altitude
Rises 09:24:36 0° 320° (NW) 2,964 ? -10.4°
Reaches altitude 10° 09:27:29 10° 301° (WNW) 2,051 ? -10.1°
Maximum altitude 09:30:34 18° 259° (W) 1,582 ? -9.9°
Enters shadow 09:33:02 12° 223° (SW) 1,887 ? -9.7°
